Starlink 33788

operational
NORAD ID: 63589 Int'l Des: 2025-076 Owner: SPXS Country: US Constellation: starlink
LEOCIRCULAR

Über Starlink 33788

Beschreibung wird geladen...

Live-Position

3D-Globus wird geladen...

Nächste Überflüge

Höhenverlauf

Altitude vs Time

uPlot chart will show altitude changes over time

Zweizeiliger Elementsatz

1 63589U 25076W 25350.94929694 .00021509 00000-0 78836-3 0 9990
2 63589 43.0063 69.2026 0001647 286.7052 73.3619 15.27601819 39171
Epoch: 16. Dez. 2025 • Age: 11 hours

Aktueller Status

Höhe 482.2 km
Geschwindigkeit 7.63 km/s
Subsatellitenpunkt 16.92°N, 148.92°W
Startdatum 14. Apr. 2025
Alter 0.6 years
Typ internet

Technische Details

Klassifizierung Payload
Masse 575.00 kg
Trockenmasse 530.00 kg
Gesamtmasse 575.00 kg
Länge 0.30 m
Durchmesser 4.10 m
Spannweite 29.00 m
Form Box + pan
Hersteller SPXS
Bus-Typ Starlink V2MO
Phasenstatus In Orbit
Besitzer/Staat SPXS/US

Große Konstellationen

Loading constellations...